DW9356 Weather Reports


Display with metric or nautical units.
time (UTC)temp
F
wind
direction
speed
MPH
gust
MPH
rain 1hr
in
rain 24hr
in
rain mn
in
humidity
%
barometer
mb
20260831101908 77 175 0.0 0.0 0.00 0.00 0.00 95 1014.9
20260831101631 77 175 0.0 0.0 0.00 0.00 0.00 95 1014.9
20260831100907 77 175 0.0 0.0 0.00 0.00 0.00 95 1015.1
20260831100340 78 175 0.0 0.0 0.00 0.00 0.00 95 1015.1
20260831095818 78 175 0.0 0.0 0.00 0.00 0.00 95 1015.1
20260831095249 78 175 0.0 0.0 0.00 0.00 0.00 94 1015.1
20260831094749 78 175 0.0 0.0 0.00 0.00 0.00 94 1015.0
20260831094226 78 175 0.0 0.0 0.00 0.00 0.00 94 1015.0
20260831093704 78 175 0.0 0.0 0.00 0.00 0.00 94 1014.9
20260831093423 78 175 0.0 0.0 0.00 0.00 0.00 94 1014.9
20260831092633 78 175 0.0 0.0 0.00 0.00 0.00 94 1014.9
20260831092352 78 175 0.0 0.0 0.00 0.00 0.00 94 1014.9
20260831092054 78 175 0.0 0.0 0.00 0.00 0.00 94 1014.8
20260831091108 78 175 0.0 0.0 0.00 0.00 0.00 94 1014.8
20260831090546 78 175 0.0 0.0 0.00 0.00 0.00 94 1014.7
20260831090047 78 175 0.0 0.0 0.00 0.00 0.00 94 1014.8
20260831085753 78 175 0.0 0.0 0.00 0.00 0.00 94 1014.9
20260831085215 78 175 0.0 0.0 0.00 0.00 0.00 93 1014.9
20260831084430 78 175 0.0 0.0 0.00 0.00 0.00 93 1014.9
20260831084145 78 175 0.0 0.0 0.00 0.00 0.00 93 1014.9
20260831083424 78 175 0.0 1.0 0.00 0.00 0.00 93 1014.9
20260831082925 78 175 0.0 1.0 0.00 0.00 0.00 93 1014.9
20260831082401 78 175 0.0 0.0 0.00 0.00 0.00 92 1014.9
20260831081833 78 175 0.0 0.0 0.00 0.00 0.00 92 1015.0
20260831081306 78 175 0.0 0.0 0.00 0.00 0.00 92 1015.0
20260831080742 78 175 0.0 0.0 0.00 0.00 0.00 92 1015.0
20260831080214 79 175 0.0 0.0 0.00 0.00 0.00 92 1015.1
20260831075648 79 175 0.0 0.0 0.00 0.00 0.00 92 1015.0
20260831075120 79 175 0.0 0.0 0.00 0.00 0.00 91 1015.0
20260831074618 79 175 0.0 0.0 0.00 0.00 0.00 91 1015.1
20260831074115 79 175 0.0 0.0 0.00 0.00 0.00 91 1015.0
20260831073549 79 175 0.0 0.0 0.00 0.00 0.00 91 1015.0
20260831073021 79 175 0.0 0.0 0.00 0.00 0.00 91 1015.1
20260831072509 79 175 0.0 0.0 0.00 0.00 0.00 90 1015.1
20260831071943 80 175 0.0 0.0 0.00 0.00 0.00 90 1015.2
20260831071413 80 175 0.0 0.0 0.00 0.00 0.00 90 1015.1
20260831070910 80 175 0.0 0.0 0.00 0.00 0.00 90 1015.2
20260831070354 80 175 0.0 0.0 0.00 0.00 0.00 90 1015.1
20260831065853 80 175 0.0 0.0 0.00 0.00 0.00 89 1015.1
20260831065355 80 175 0.0 0.0 0.00 0.00 0.00 89 1015.1
20260831064850 80 175 0.0 0.0 0.00 0.00 0.00 89 1015.1
20260831064829 80 175 0.0 0.0 0.00 0.00 0.00 89 1015.1
20260831063839 80 175 0.0 0.0 0.00 0.00 0.00 89 1015.2
20260831063336 80 175 0.0 0.0 0.00 0.00 0.00 88 1015.3
20260831062809 80 175 0.0 0.0 0.00 0.00 0.00 88 1015.2
20260831062306 81 175 0.0 0.0 0.00 0.00 0.00 88 1015.2
20260831061739 81 175 0.0 0.0 0.00 0.00 0.00 88 1015.3
20260831061238 81 175 0.0 0.0 0.00 0.00 0.00 88 1015.2
20260831060711 81 175 0.0 0.0 0.00 0.00 0.00 87 1015.3
20260831060344 81 175 0.0 0.0 0.00 0.00 0.00 87 1015.3
20260831060230 81 175 0.0 0.0 0.00 0.00 0.00 87 1015.3
20260831055115 81 175 0.0 0.0 0.00 0.00 0.00 86 1015.3
20260831054612 81 175 0.0 0.0 0.00 0.00 0.00 86 1015.4
20260831054332 81 175 0.0 2.0 0.00 0.00 0.00 86 1015.3
20260831053607 82 175 0.0 2.0 0.00 0.00 0.00 85 1015.2
20260831053309 82 173 0.0 1.0 0.00 0.00 0.00 85 1015.2
20260831052538 82 173 0.0 1.0 0.00 0.00 0.00 85 1015.3
20260831052034 82 173 0.0 0.0 0.00 0.00 0.00 84 1015.2
20260831051509 82 173 0.0 0.0 0.00 0.00 0.00 84 1015.2
20260831050942 82 173 0.0 0.0 0.00 0.00 0.00 84 1015.1
20260831050441 83 173 0.0 1.0 0.00 0.00 0.00 84 1015.0
20260831045940 83 173 0.0 1.0 0.00 0.00 0.00 83 1015.0
20260831045700 83 174 0.0 2.0 0.00 0.00 0.00 83 1015.0
20260831044939 83 174 0.0 2.0 0.00 0.00 0.00 83 1015.0
20260831044432 83 186 0.0 2.0 0.00 0.00 0.00 83 1015.0
20260831043927 83 167 0.0 1.0 0.00 0.00 0.00 82 1015.0
20260831043424 83 167 0.0 1.0 0.00 0.00 0.00 81 1015.0
20260831042920 83 167 0.0 1.0 0.00 0.00 0.00 81 1015.0
20260831042418 83 167 0.0 1.0 0.00 0.00 0.00 81 1014.9
20260831041906 83 167 0.0 4.0 0.00 0.00 0.00 80 1014.8
20260831041636 84 167 1.0 4.0 0.00 0.00 0.00 80 1014.8
20260831040841 84 188 0.0 4.0 0.00 0.00 0.00 79 1014.8
20260831040315 84 188 0.0 4.0 0.00 0.00 0.00 79 1014.8
20260831035811 84 157 0.0 3.0 0.00 0.00 0.00 79 1014.7
20260831035242 84 157 1.0 4.0 0.00 0.00 0.00 78 1014.6
20260831034717 84 194 1.0 5.0 0.00 0.00 0.00 78 1014.5
20260831034152 84 194 1.0 5.0 0.00 0.00 0.00 78 1014.5
20260831033651 84 192 0.0 3.0 0.00 0.00 0.00 77 1014.4
20260831033118 85 145 0.0 1.0 0.00 0.00 0.00 76 1014.4
20260831032552 85 145 0.0 1.0 0.00 0.00 0.00 76 1014.4
20260831032025 85 146 0.0 3.0 0.00 0.00 0.00 76 1014.4
20260831031522 85 145 1.0 3.0 0.00 0.00 0.00 75 1014.3
20260831030955 85 142 1.0 3.0 0.00 0.00 0.00 75 1014.3
20260831030430 85 142 1.0 4.0 0.00 0.00 0.00 74 1014.2
20260831030139 86 209 0.0 4.0 0.00 0.00 0.00 74 1014.1
20260831025419 86 178 0.0 3.0 0.00 0.00 0.00 73 1014.1
20260831025122 86 180 0.0 3.0 0.00 0.00 0.00 72 1014.0
20260831024357 86 173 0.0 4.0 0.00 0.00 0.00 72 1013.9
20260831023858 87 205 1.0 4.0 0.00 0.00 0.00 71 1013.8
20260831023355 87 142 1.0 5.0 0.00 0.00 0.00 71 1013.7
20260831022856 87 190 1.0 5.0 0.00 0.00 0.00 70 1013.7
20260831022352 87 181 1.0 3.0 0.00 0.00 0.00 70 1013.7
20260831021849 87 182 1.0 3.0 0.00 0.00 0.00 69 1013.5
20260831021322 87 190 1.0 4.0 0.00 0.00 0.00 68 1013.5
20260831020818 88 184 1.0 5.0 0.00 0.00 0.00 68 1013.4
20260831020251 88 189 1.0 5.0 0.00 0.00 0.00 68 1013.3
20260831015726 88 164 1.0 5.0 0.00 0.00 0.00 67 1013.3
20260831015159 89 213 1.0 5.0 0.00 0.00 0.00 67 1013.3
20260831014655 89 205 1.0 6.0 0.00 0.00 0.00 66 1013.3
20260831014613 89 138 1.0 6.0 0.00 0.00 0.00 65 1013.2
20260831013603 89 181 2.0 8.0 0.00 0.00 0.00 65 1013.3
20260831013059 89 202 2.0 8.0 0.00 0.00 0.00 65 1013.2
20260831012533 89 160 1.0 8.0 0.00 0.00 0.00 64 1013.2
20260831012029 90 155 1.0 6.0 0.00 0.00 0.00 63 1013.2
20260831011504 90 163 1.0 6.0 0.00 0.00 0.00 63 1013.1
20260831010937 90 183 1.0 6.0 0.00 0.00 0.00 62 1013.0
20260831010433 90 146 1.0 6.0 0.00 0.00 0.00 62 1013.0
20260831005910 91 128 1.0 4.0 0.00 0.00 0.00 62 1013.0
20260831005345 91 169 1.0 4.0 0.00 0.00 0.00 61 1013.0
20260831005101 91 172 1.0 5.0 0.00 0.00 0.00 61 1012.9
20260831004337 91 198 1.0 5.0 0.00 0.00 0.00 60 1012.8
20260831003825 91 176 1.0 4.0 0.00 0.00 0.00 59 1012.9
20260831003328 91 159 1.0 5.0 0.00 0.00 0.00 58 1012.8
20260831002801 92 179 1.0 5.0 0.00 0.00 0.00 57 1012.9
20260831002258 92 187 1.0 5.0 0.00 0.00 0.00 56 1012.7
20260831001730 92 157 1.0 6.0 0.00 0.00 0.00 56 1012.7
20260831001228 92 146 1.0 6.0 0.00 0.00 0.00 57 1012.7
20260831000702 93 182 1.0 9.0 0.00 0.00 0.00 57 1012.7
20260831000134 93 165 1.0 9.0 0.00 0.00 0.00 57 1012.7
20260830235858 93 142 1.0 7.0 0.00 0.00 0.00 57 1012.7
20260830235128 93 160 1.0 7.0 0.00 0.00 0.00 56 1012.7
20260830234627 94 103 1.0 7.0 0.00 0.00 0.00 55 1012.7
20260830234319 94 139 1.0 6.0 0.00 0.00 0.00 54 1012.7
20260830233555 94 164 1.0 8.0 0.00 0.00 0.00 54 1012.7
20260830233028 94 146 1.0 8.0 0.00 0.00 0.00 54 1012.6
20260830232526 95 148 2.0 8.0 0.00 0.00 0.00 54 1012.6
20260830232221 95 119 2.0 8.0 0.00 0.00 0.00 53 1012.5
20260830231456 96 171 3.0 9.0 0.00 0.00 0.00 54 1012.7
20260830231154 96 119 3.0 9.0 0.00 0.00 0.00 53 1012.7
20260830230424 96 128 2.0 7.0 0.00 0.00 0.00 51 1012.6
20260830225921 97 162 1.0 5.0 0.00 0.00 0.00 48 1012.5
20260830225555 97 119 1.0 3.0 0.00 0.00 0.00 47 1012.6
20260830225443 97 176 1.0 5.0 0.00 0.00 0.00 49 1012.5
20260830224549 97 136 1.0 3.0 0.00 0.00 0.00 48 1012.6
20260830223821 97 154 1.0 4.0 0.00 0.00 0.00 50 1012.6
20260830223245 97 156 1.0 7.0 0.00 0.00 0.00 47 1012.7
20260830223237 97 176 1.0 5.0 0.00 0.00 0.00 48 1012.7
20260830222215 97 142 1.0 5.0 0.00 0.00 0.00 47 1012.6
20260830221937 97 140 1.0 4.0 0.00 0.00 0.00 50 1012.6
20260830221215 97 215 2.0 7.0 0.00 0.00 0.00 49 1012.7
20260830220512 97 153 1.0 6.0 0.00 0.00 0.00 47 1012.7
20260830220009 97 195 1.0 5.0 0.00 0.00 0.00 48 1012.7
20260830215506 97 193 1.0 5.0 0.00 0.00 0.00 48 1012.7
20260830215003 97 179 1.0 6.0 0.00 0.00 0.00 49 1012.8
20260830214500 97 171 1.0 6.0 0.00 0.00 0.00 50 1012.8
20260830213956 97 169 1.0 4.0 0.00 0.00 0.00 50 1012.8
20260830213451 98 164 1.0 5.0 0.00 0.00 0.00 49 1013.0
20260830212926 98 195 2.0 8.0 0.00 0.00 0.00 50 1013.0
20260830212400 98 90 2.0 8.0 0.00 0.00 0.00 51 1013.0
20260830211832 98 80 1.0 5.0 0.00 0.00 0.00 50 1013.1
20260830211332 98 208 1.0 5.0 0.00 0.00 0.00 49 1013.3
20260830210808 98 130 1.0 5.0 0.00 0.00 0.00 51 1013.4
20260830210301 98 150 1.0 7.0 0.00 0.00 0.00 51 1013.4
20260830205733 98 199 2.0 7.0 0.00 0.00 0.00 51 1013.5
20260830205652 98 171 1.0 7.0 0.00 0.00 0.00 49 1013.6
20260830204642 98 115 1.0 7.0 0.00 0.00 0.00 53 1013.7
20260830204107 98 188 1.0 9.0 0.00 0.00 0.00 52 1013.7
20260830203540 98 132 1.0 9.0 0.00 0.00 0.00 51 1013.8
20260830203242 98 106 1.0 4.0 0.00 0.00 0.00 53 1013.8
20260830202447 98 142 1.0 4.0 0.00 0.00 0.00 52 1013.9
20260830201921 97 180 1.0 5.0 0.00 0.00 0.00 52 1014.0
20260830201420 97 212 1.0 5.0 0.00 0.00 0.00 53 1014.1
20260830200853 97 156 0.0 3.0 0.00 0.00 0.00 56 1014.2
20260830200349 96 254 0.0 6.0 0.00 0.00 0.00 54 1014.2
20260830195846 96 209 1.0 6.0 0.00 0.00 0.00 53 1014.3
20260830195342 97 157 1.0 5.0 0.00 0.00 0.00 54 1014.5
20260830195103 97 180 0.0 5.0 0.00 0.00 0.00 57 1014.5
20260830194338 96 40 1.0 5.0 0.00 0.00 0.00 53 1014.6
20260830193812 96 82 2.0 7.0 0.00 0.00 0.00 57 1014.8
20260830193512 96 130 2.0 7.0 0.00 0.00 0.00 54 1014.9
20260830192752 97 161 1.0 6.0 0.00 0.00 0.00 55 1015.0
20260830192250 96 115 2.0 6.0 0.00 0.00 0.00 58 1015.1
20260830191752 96 146 1.0 6.0 0.00 0.00 0.00 56 1015.2
20260830191223 95 198 1.0 4.0 0.00 0.00 0.00 56 1015.2
20260830190721 97 44 0.0 2.0 0.00 0.00 0.00 56 1015.3
20260830190155 96 165 0.0 3.0 0.00 0.00 0.00 57 1015.3
20260830185847 96 68 1.0 5.0 0.00 0.00 0.00 57 1015.3
20260830185058 96 152 1.0 3.0 0.00 0.00 0.00 61 1015.4
20260830184555 95 158 1.0 5.0 0.00 0.00 0.00 60 1015.5
20260830184051 95 248 1.0 4.0 0.00 0.00 0.00 60 1015.5
20260830183812 95 209 1.0 6.0 0.00 0.00 0.00 61 1015.6
20260830183044 94 184 1.0 6.0 0.00 0.00 0.00 60 1015.7
20260830182542 94 247 0.0 3.0 0.00 0.00 0.00 60 1015.8
20260830182039 94 304 0.0 3.0 0.00 0.00 0.00 63 1016.0
20260830181540 94 305 1.0 4.0 0.00 0.00 0.00 62 1016.0
20260830181039 94 178 1.0 5.0 0.00 0.00 0.00 64 1016.2
20260830180535 94 310 1.0 5.0 0.00 0.00 0.00 63 1016.2
20260830180032 94 285 1.0 6.0 0.00 0.00 0.00 63 1016.2
20260830175745 94 10 1.0 6.0 0.00 0.00 0.00 62 1016.3
20260830175020 93 309 1.0 3.0 0.00 0.00 0.00 62 1016.4
20260830174712 93 139 0.0 4.0 0.00 0.00 0.00 62 1016.5
20260830173950 94 142 1.0 4.0 0.00 0.00 0.00 62 1016.6
20260830173423 95 189 1.0 4.0 0.00 0.00 0.00 62 1016.7
20260830172856 94 188 1.0 4.0 0.00 0.00 0.00 63 1016.9
20260830172354 95 157 1.0 5.0 0.00 0.00 0.00 67 1016.9
20260830171828 94 125 1.0 5.0 0.00 0.00 0.00 65 1016.9
20260830171314 93 135 0.0 3.0 0.00 0.00 0.00 65 1016.8
20260830170818 94 180 0.0 2.0 0.00 0.00 0.00 63 1016.8
20260830170311 93 122 1.0 4.0 0.00 0.00 0.00 66 1016.9
20260830165807 92 323 1.0 5.0 0.00 0.00 0.00 66 1016.8
20260830165240 93 245 1.0 5.0 0.00 0.00 0.00 67 1016.9
20260830164738 93 218 1.0 6.0 0.00 0.00 0.00 68 1016.9
20260830164234 93 182 1.0 6.0 0.00 0.00 0.00 68 1017.0
20260830163730 93 247 1.0 4.0 0.00 0.00 0.00 69 1017.1
20260830163228 93 178 1.0 4.0 0.00 0.00 0.00 70 1017.1
20260830162946 92 162 0.0 4.0 0.00 0.00 0.00 70 1017.0
20260830162159 92 153 0.0 4.0 0.00 0.00 0.00 72 1017.0
20260830161654 91 163 1.0 4.0 0.00 0.00 0.00 69 1017.1
20260830161150 91 146 1.0 4.0 0.00 0.00 0.00 70 1017.2
20260830160913 91 192 1.0 3.0 0.00 0.00 0.00 72 1017.2
20260830160406 90 290 0.0 3.0 0.00 0.00 0.00 71 1017.1
20260830155641 90 169 0.0 3.0 0.00 0.00 0.00 74 1017.2
20260830155115 89 169 1.0 3.0 0.00 0.00 0.00 74 1017.2
20260830154834 89 220 0.0 3.0 0.00 0.00 0.00 73 1017.2
20260830154042 89 180 1.0 3.0 0.00 0.00 0.00 75 1017.2
20260830153533 88 172 1.0 5.0 0.00 0.00 0.00 74 1017.2
20260830153030 88 197 1.0 5.0 0.00 0.00 0.00 76 1017.1
20260830152500 88 185 1.0 5.0 0.00 0.00 0.00 78 1017.1
20260830151936 87 159 1.0 4.0 0.00 0.00 0.00 80 1017.1
20260830151631 87 175 0.0 3.0 0.00 0.00 0.00 81 1017.0
20260830150843 86 222 0.0 3.0 0.00 0.00 0.00 82 1017.0
20260830150317 86 188 0.0 3.0 0.00 0.00 0.00 82 1017.1
20260830145752 86 188 0.0 3.0 0.00 0.00 0.00 83 1017.1
20260830145225 86 187 1.0 3.0 0.00 0.00 0.00 83 1017.0
20260830144721 86 128 1.0 3.0 0.00 0.00 0.00 84 1016.9
20260830144218 85 157 1.0 3.0 0.00 0.00 0.00 85 1016.9
20260830143716 85 181 1.0 3.0 0.00 0.00 0.00 86 1017.0
20260830143149 84 204 1.0 3.0 0.00 0.00 0.00 89 1017.0
20260830142645 84 162 1.0 3.0 0.00 0.00 0.00 90 1017.1
20260830142138 83 181 1.0 3.0 0.00 0.00 0.00 91 1017.1
20260830141636 83 172 0.0 3.0 0.00 0.00 0.00 92 1017.1
20260830141356 82 236 0.0 2.0 0.00 0.00 0.00 92 1017.1
20260830140618 82 194 0.0 2.0 0.00 0.00 0.00 93 1017.1
20260830140118 81 193 0.0 2.0 0.00 0.00 0.00 94 1017.1
20260830135616 81 217 0.0 2.0 0.00 0.00 0.00 94 1017.0
20260830135116 81 215 0.0 2.0 0.00 0.00 0.00 95 1017.0
20260830134552 81 213 0.0 2.0 0.00 0.00 0.00 95 1016.9
20260830134025 80 190 0.0 1.0 0.00 0.00 0.00 95 1016.8
20260830133522 80 190 0.0 1.0 0.00 0.00 0.00 95 1016.8
20260830132955 80 190 0.0 1.0 0.00 0.00 0.00 96 1016.8
20260830132452 80 190 0.0 1.0 0.00 0.00 0.00 96 1016.7
20260830131925 79 190 0.0 1.0 0.00 0.00 0.00 96 1016.8
20260830131424 79 191 0.0 1.0 0.00 0.00 0.00 96 1016.9
20260830130856 79 190 0.0 1.0 0.00 0.00 0.00 96 1016.6
20260830130354 79 190 0.0 0.0 0.00 0.00 0.00 97 1016.6
20260830130327 78 190 0.0 0.0 0.00 0.00 0.00 97 1016.6
20260830125546 78 190 0.0 0.0 0.00 0.00 0.00 97 1016.5
20260830124756 77 190 0.0 0.0 0.00 0.00 0.00 97 1016.4
20260830124230 77 190 0.0 0.0 0.00 0.00 0.00 97 1016.4
20260830123727 77 190 0.0 0.0 0.00 0.00 0.00 97 1016.4
20260830123223 76 190 0.0 0.0 0.00 0.00 0.00 96 1016.3
20260830122711 76 190 0.0 0.0 0.00 0.00 0.00 96 1016.3
20260830122213 76 190 0.0 0.0 0.00 0.00 0.00 96 1016.3
20260830121647 76 190 0.0 0.0 0.00 0.00 0.00 96 1016.3
20260830121120 76 190 0.0 0.0 0.00 0.01 0.00 96 1016.3
20260830120616 76 190 0.0 0.0 0.00 0.01 0.00 96 1016.2
20260830120049 76 190 0.0 0.0 0.00 0.01 0.00 96 1016.2
20260830115549 76 190 0.0 0.0 0.00 0.01 0.00 96 1016.2
20260830115047 76 190 0.0 0.0 0.00 0.01 0.00 96 1016.1
20260830114522 76 190 0.0 0.0 0.00 0.01 0.00 96 1016.2
20260830114236 76 190 0.0 0.0 0.00 0.01 0.00 96 1016.2
20260830113517 76 190 0.0 0.0 0.00 0.01 0.00 95 1016.2
20260830113014 76 190 0.0 0.0 0.00 0.01 0.00 96 1016.1
20260830112512 76 190 0.0 0.0 0.00 0.01 0.00 96 1016.1
20260830112433 76 190 0.0 0.0 0.00 0.01 0.00 96 1016.0
20260830111444 76 190 0.0 0.0 0.00 0.01 0.00 96 1016.0
20260830110917 76 190 0.0 0.0 0.00 0.01 0.00 96 1015.9
20260830110413 76 190 0.0 0.0 0.00 0.01 0.00 96 1015.8
20260830105850 76 190 0.0 0.0 0.00 0.01 0.00 95 1015.8
20260830105322 77 190 0.0 0.0 0.00 0.01 0.00 95 1015.8
20260830104754 77 190 0.0 0.0 0.00 0.01 0.00 95 1015.8
20260830104250 77 190 0.0 0.0 0.00 0.01 0.00 95 1015.7
20260830104241 77 190 0.0 0.0 0.00 0.01 0.00 95 1015.7
20260830103511 77 190 0.0 0.0 0.00 0.01 0.00 95 1015.6
20260830102720 77 190 0.0 0.0 0.00 0.01 0.00 95 1015.6
20260830102217 77 190 0.0 0.0 0.00 0.01 0.00 95 1015.6